Regional Weather Roundup
Issued by NWS Green Bay, WI

Home | Current Version | Previous Version | Text Only | Print | Product List | Glossary On
Versions: 1 2 3 4 5 6 7 8 9 10 11 12 13 14 15 16 17 18 19 20 21 22 23 24 25 26 27 28 29 30 31 32 33 34 35 36 37 38 39 40 41 42 43 44 45 46 47 48 49 50
867
ASUS43 KGRB 231501
RWRGRB

NORTH-CENTRAL AND NORTHEAST WISCONSIN REGIONAL WEATHER ROUNDUP
NATIONAL WEATHER SERVICE GREEN BAY WI
1000 AM CDT TUE MAY 23 2017

WIZ005-009-010>012-018-019-231600-
NORTH CENTRAL WISCONSIN

CITY           SKY/WX    TMP DP  RH WIND       PRES   REMARKS
IRONWOOD       CLOUDY    52  45  77 E5        29.87R
MANITOWISH WTR NOT AVBL
ARBOR VITAE    NOT AVBL
EAGLE RIVER    NOT AVBL
LAND O LAKES   NOT AVBL
RHINELANDER    CLOUDY    48  46  93 N3        29.86S
PHILLIPS       NOT AVBL
ANTIGO         NOT AVBL
TOMAHAWK       NOT AVBL
MERRILL        NOT AVBL
$$

WIZ013-073-231600-
NORTHEAST WISCONSIN

CITY           SKY/WX    TMP DP  RH WIND       PRES   REMARKS
IRON MOUNTAIN  CLOUDY    50  44  80 VRB3      29.84S
MARINETTE      LGT RAIN  49  47  93 E7        29.84S
$$

WIZ017-030-035>037-045-231600-
CENTRAL WISCONSIN

CITY           SKY/WX    TMP DP  RH WIND       PRES   REMARKS
MEDFORD        NOT AVBL
WAUSAU         CLOUDY    51  44  77 NE7       29.80S
MOSINEE        CLOUDY    52  48  87 NE12      29.80F
MARSHFIELD     CLOUDY    51  46  83 NE15      29.78S
WISC RAPIDS    CLOUDY    54  48  80 E6        29.79S
STEVENS POINT  NOT AVBL
WAUPACA        NOT AVBL
SHAWANO        NOT AVBL
CLINTONVILLE   NOT AVBL
WAUTOMA        CLOUDY    58  54  86 VRB5      29.77S
$$

WIZ038-039-048-051-231600-
FOX VALLEY

CITY           SKY/WX    TMP DP  RH WIND       PRES   REMARKS
NWS GREEN BAY  CLOUDY    54  50  86 NE15      29.80S
APPLETON       CLOUDY    54  46  76 E9        29.77F
OSHKOSH        CLOUDY    60  53  77 S6        29.77S
FOND DU LAC    CLOUDY    59  52  77 SW5       29.77S
$$

WIZ022-050-052-231600-
EAST CENTRAL WISCONSIN

CITY           SKY/WX    TMP DP  RH WIND       PRES   REMARKS
EPHRAIM        NOT AVBL
WASHINGTON ISL NOT AVBL
STURGEON BAY   CLOUDY    52  46  80 NE8       29.83S
MANITOWOC      NOT AVBL
SHEBOYGAN      PTSUNNY   58  54  86 NE6       29.78S
$$

LMZ563-521-522-541>543-231600-
LAKESHORE

STATION/POSITION TIME  TEMP    WIND        PRES    VSBY  WAVE
                       AIR SEA DIR/SP/G                  HT/PER
                 (UTC) (F)     (DEG/KT/KT) (MB)    (MI)  (FT/S)
SHEBOYGAN LKSHOR 1400   46      10/  9/  9 1008.7S
KEWAUNEE LKSHORE 1430   47      30/ 10/ 12 1009.2R
NORTHPORT PIER   1440   45      70/  2/  4 1010.8S
N MID LAKE BUOY  1350   40 39   50/  6/  8 1011.6F         1/ 5
CHAMBERS ISLAND  1440   47      20/  9/ 12 1010.2F
MENOMINEE LKSHOR 1430           20/ 11/ 12 1009.6R
$$




USA.gov is the U.S. government's official web portal to all federal, state and local government web resources and services.